一网星座-0691 (ONEWEB-0691)

导读 | 豆包AI

ONEWEB-0691是英国主导的OneWeb低轨互联网星座中的卫星,于2024年10月20日发射。作为OneWeb一期组网完成后补充卫星,它运行在1200公里的近地轨道,属于低轨通信卫星,采用Ku/Ka波段提供服务,单星具备约7.5Gbps通信能力,可支撑全球高速互联网接入,尤其强化高纬度地区覆盖,助力消除全球数字鸿沟,也可拓展军事通信应用场景,星座整体遵循空间碎片减缓规范,寿命终结后会主动离轨。

基本信息
目录编号:
61599
目录名称:
ONEWEB-0691
国际标识:
2024-188F
轨道中心:
EARTH
卫星名称:
一网星座-0691
卫星全名:
一网星座-0691 (ONEWEB-0691)
卫星状态:
在轨 (已飞行557 天)
发射日期:
2024-10-20 UTC
国别 :
英国 (GB)
星等 :
--
轨道信息
数据来源 国际轨道数据
星历时间: 2026-04-30T12:55:31+0800
4小时前
查看轨道信息
半长轴: 7595.824km
偏心率: 0.0001845
轨道倾角: 87.894°
近地点辐角 92.183°
升交点赤经 30.504°
平近点角 267.951°
近地点: 1216.285km
远地点: 1219.089km
周期: 109.805分钟
每日圈数: 13.114159
详细信息
卫星平台:
0691
平衡模式:
三轴稳定
覆盖范围:
全球
运营商:
一网卫星公司
运营商所在国:
英国
制造商(研发单位):
空客防务与航天公司
制造商所在国:
法国大都会
使用方式:
暂无
卫星简介
OneWeb 计划是一项全球卫星互联网项目,旨在通过发射低轨道卫星,为全球偏远和无法接入互联网的地区提供高速网络连接。OneWeb 的目标是打造一个由数百颗卫星组成的网络,帮助缩小全球数字鸿沟,推动教育、医疗和经济发展。
2D轨道图
3D轨道图
轨道高度分析图
轨道倾角分析图
轨道综合分析图
查看轨道综合分析图